Weather History for KAWG - January, 2014

Change the Weather History Date:

Monday, January 27, 2014

  Actual Average Record
Temperature  
Mean Temperature 0 °F -  
Max Temperature 5 °F 29 °F 64 °F (2002)
Min Temperature -5 °F 16 °F -5 °F (2014)
Degree Days  
Heating Degree Days 65    
Moisture  
Dew Point -10 °F    
Average Humidity 62    
Maximum Humidity 84    
Minimum Humidity 47    
Precipitation  
Precipitation 0.00 in - - ()
Sea Level Pressure  
Sea Level Pressure 30.38 in    
Wind  
Wind Speed 20 mph (NW)    
Max Wind Speed 33 mph    
Max Gust Speed 43 mph    
Visibility 10 miles    
Events      
Averages and records for this station are not official NWS values.
T = Trace of Precipitation, MM = Missing Value Source: NWS Daily Summary

Daily Weather History Graph

Daily Weather History Graph

Search for Another Location

Airport or City:

Trip Planner

Search our weather history database for the weather conditions in past years. The results will help you decide how hot, cold, wet, or windy it might be!

Date:

Astronomy

Jan. 27, 2014 Rise Set
Actual Time 7:22 AM CST 5:16 PM CST
Civil Twilight 6:52 AM CST 5:46 PM CST
Nautical Twilight 6:19 AM CST 6:19 PM CST
Astronomical Twilight 5:46 AM CST 6:52 PM CST
Moon 4:04 AM CST (1/27) 2:02 PM CST (1/27)
Length of Visible Light 10h 53m
Length of Day
9h 54m
Waning Crescent, 14% of the Moon is Illuminated
Jan 27
Waning Crescent
Jan 30
New
Feb 6
First Quarter
Feb 14
Full
Feb 22
Last Quarter

Hourly Weather History & Observations

Time (CST) Temp. Windchill Dew Point Humidity Pressure Visibility Wind Dir Wind Speed Gust Speed Precip Events Conditions
12:15 AM 5.0 °F -18.3 °F -5.8 °F 61% 30.13 in 10.0 mi NW 27.6 mph 38.0 mph N/A   Overcast
12:35 AM 5.0 °F -17.1 °F -5.8 °F 61% 30.14 in 10.0 mi NW 24.2 mph 40.3 mph N/A   Overcast
12:55 AM 3.2 °F -18.1 °F -5.8 °F 66% 30.15 in 10.0 mi NW 20.7 mph 32.2 mph N/A   Overcast
1:15 AM 3.2 °F -19.5 °F -5.8 °F 66% 30.16 in 10.0 mi NW 24.2 mph 29.9 mph N/A   Overcast
1:35 AM 3.2 °F -18.1 °F -7.6 °F 61% 30.17 in 10.0 mi NW 20.7 mph 35.7 mph N/A   Scattered Clouds
1:55 AM 3.2 °F -20.3 °F -7.6 °F 61% 30.18 in 10.0 mi NW 26.5 mph 33.4 mph N/A   Mostly Cloudy
2:15 AM 1.4 °F -25.0 °F -7.6 °F 66% 30.20 in 10.0 mi NW 33.4 mph 42.6 mph N/A   Mostly Cloudy
2:35 AM 1.4 °F -21.9 °F -9.4 °F 61% 30.21 in 10.0 mi NW 24.2 mph 32.2 mph N/A   Scattered Clouds
2:55 AM 1.4 °F -21.0 °F -7.6 °F 66% 30.21 in 10.0 mi WNW 21.9 mph 31.1 mph N/A   Mostly Cloudy
3:15 AM 1.4 °F -22.7 °F -9.4 °F 61% 30.23 in 10.0 mi NW 26.5 mph 41.4 mph N/A   Overcast
3:35 AM 1.4 °F -20.5 °F -9.4 °F 61% 30.24 in 10.0 mi NW 20.7 mph 32.2 mph N/A   Mostly Cloudy
3:55 AM 1.4 °F -22.3 °F -9.4 °F 61% 30.25 in 10.0 mi NW 25.3 mph 33.4 mph N/A   Overcast
4:15 AM -0.4 °F -21.7 °F -11.2 °F 60% 30.25 in 10.0 mi NW 18.4 mph 36.8 mph N/A   Mostly Cloudy
4:35 AM 1.4 °F -19.4 °F -7.6 °F 66% 30.25 in 10.0 mi NW 18.4 mph 27.6 mph N/A   Mostly Cloudy
4:55 AM -0.4 °F -26.4 °F -11.2 °F 60% 30.26 in 10.0 mi NW 29.9 mph 36.8 mph N/A   Overcast
5:15 AM -0.4 °F -23.3 °F -11.2 °F 60% 30.28 in 10.0 mi NW 21.9 mph 28.8 mph N/A   Overcast
5:35 AM -0.4 °F -21.7 °F -11.2 °F 60% 30.28 in 10.0 mi NW 18.4 mph 29.9 mph N/A   Overcast
5:55 AM -0.4 °F -22.3 °F -9.4 °F 66% 30.30 in 10.0 mi WNW 19.6 mph 26.5 mph N/A   Overcast
6:15 AM -0.4 °F -24.7 °F -11.2 °F 60% 30.30 in 10.0 mi WNW 25.3 mph - N/A   Overcast
6:35 AM -0.4 °F -23.8 °F -11.2 °F 60% 30.32 in 10.0 mi WNW 23.0 mph 28.8 mph N/A   Overcast
6:55 AM -0.4 °F -19.9 °F -11.2 °F 60% 30.33 in 10.0 mi NW 15.0 mph 29.9 mph N/A   Mostly Cloudy
7:15 AM -0.4 °F -21.7 °F -11.2 °F 60% 30.34 in 10.0 mi NW 18.4 mph 26.5 mph N/A   Mostly Cloudy
7:35 AM -2.2 °F -26.2 °F -11.2 °F 66% 30.34 in 10.0 mi NW 23.0 mph 31.1 mph N/A   Overcast
7:55 AM -2.2 °F -25.7 °F -11.2 °F 66% 30.35 in 10.0 mi NW 21.9 mph 28.8 mph N/A   Overcast
8:15 AM -2.2 °F -26.7 °F -11.2 °F 66% 30.36 in 10.0 mi NW 24.2 mph 29.9 mph N/A   Scattered Clouds
8:35 AM -2.2 °F -23.5 °F -11.2 °F 66% 30.37 in 10.0 mi NW 17.3 mph 26.5 mph N/A   Mostly Cloudy
8:55 AM -0.4 °F -23.3 °F -13.0 °F 55% 30.38 in 10.0 mi NW 21.9 mph 32.2 mph N/A   Mostly Cloudy
9:15 AM -0.4 °F -23.3 °F -13.0 °F 55% 30.39 in 10.0 mi NW 21.9 mph 28.8 mph N/A   Scattered Clouds
9:35 AM -0.4 °F -23.8 °F -11.2 °F 60% 30.40 in 10.0 mi WNW 23.0 mph 29.9 mph N/A   Mostly Cloudy
9:55 AM -0.4 °F -24.3 °F -13.0 °F 55% 30.41 in 10.0 mi NW 24.2 mph 32.2 mph N/A   Overcast
10:15 AM 1.4 °F -21.9 °F -11.2 °F 56% 30.41 in 10.0 mi NW 24.2 mph 31.1 mph N/A   Overcast
10:35 AM 1.4 °F -21.0 °F -11.2 °F 56% 30.42 in 10.0 mi NW 21.9 mph 28.8 mph N/A   Mostly Cloudy
10:55 AM 1.4 °F -20.5 °F -11.2 °F 56% 30.43 in 10.0 mi NW 20.7 mph 28.8 mph N/A   Mostly Cloudy
11:15 AM 1.4 °F -19.9 °F -9.4 °F 61% 30.43 in 10.0 mi NW 19.6 mph 28.8 mph N/A   Overcast
11:35 AM 3.2 °F -18.1 °F -9.4 °F 56% 30.43 in 10.0 mi NNW 20.7 mph 27.6 mph N/A   Overcast
11:55 AM 3.2 °F -17.1 °F -9.4 °F 56% 30.43 in 9.0 mi NW 18.4 mph 25.3 mph N/A   Overcast
12:15 PM 3.2 °F -17.1 °F -9.4 °F 56% 30.42 in 9.0 mi NNW 18.4 mph 24.2 mph N/A   Mostly Cloudy
12:35 PM 1.4 °F -21.0 °F -11.2 °F 56% 30.41 in 10.0 mi NW 21.9 mph - N/A   Mostly Cloudy
12:55 PM 3.2 °F -17.1 °F -9.4 °F 56% 30.41 in 10.0 mi NNW 18.4 mph - N/A   Overcast
1:15 PM 3.2 °F -17.1 °F -7.6 °F 61% 30.41 in 10.0 mi NNW 18.4 mph - N/A   Mostly Cloudy
1:35 PM 5.0 °F -14.7 °F -7.6 °F 56% 30.41 in 10.0 mi WNW 18.4 mph 25.3 mph N/A   Overcast
1:55 PM 5.0 °F -15.7 °F -9.4 °F 52% 30.41 in 10.0 mi NW 20.7 mph - N/A   Mostly Cloudy
2:15 PM 5.0 °F -15.2 °F -11.2 °F 47% 30.42 in 10.0 mi NW 19.6 mph - N/A   Scattered Clouds
2:35 PM 5.0 °F -15.2 °F -11.2 °F 47% 30.43 in 10.0 mi NW 19.6 mph - N/A   Partly Cloudy
2:55 PM 5.0 °F -15.2 °F -11.2 °F 47% 30.43 in 10.0 mi WNW 19.6 mph 27.6 mph N/A   Partly Cloudy
3:15 PM 5.0 °F -15.2 °F -11.2 °F 47% 30.43 in 10.0 mi NNW 19.6 mph - N/A   Clear
3:35 PM 3.2 °F -15.9 °F -11.2 °F 51% 30.44 in 10.0 mi NW 16.1 mph 23.0 mph N/A   Clear
3:55 PM 5.0 °F -14.7 °F -11.2 °F 47% 30.44 in 10.0 mi NW 18.4 mph - N/A   Partly Cloudy
4:15 PM 3.2 °F -16.5 °F -11.2 °F 51% 30.45 in 10.0 mi NW 17.3 mph 23.0 mph N/A   Partly Cloudy
4:35 PM 3.2 °F -15.9 °F -11.2 °F 51% 30.45 in 10.0 mi NNW 16.1 mph - N/A   Clear
4:55 PM 3.2 °F -15.3 °F -11.2 °F 51% 30.46 in 10.0 mi NW 15.0 mph - N/A   Clear
5:15 PM 1.4 °F -16.1 °F -11.2 °F 56% 30.46 in 10.0 mi NW 12.7 mph - N/A   Clear
5:35 PM 1.4 °F -13.5 °F -9.4 °F 61% 30.47 in 10.0 mi NW 9.2 mph - N/A   Clear
5:55 PM 1.4 °F -14.5 °F -9.4 °F 61% 30.47 in 10.0 mi NW 10.4 mph - N/A   Clear
6:15 PM 1.4 °F -15.3 °F -9.4 °F 61% 30.46 in 10.0 mi NW 11.5 mph - N/A   Clear
6:35 PM -0.4 °F -14.7 °F -9.4 °F 66% 30.47 in 10.0 mi NNW 8.1 mph - N/A   Clear
6:55 PM -0.4 °F -13.4 °F -9.4 °F 66% 30.47 in 10.0 mi NNW 6.9 mph - N/A   Clear
7:15 PM -0.4 °F -13.4 °F -7.6 °F 72% 30.47 in 10.0 mi NNW 6.9 mph - N/A   Clear
7:35 PM -0.4 °F -13.4 °F -7.6 °F 72% 30.48 in 10.0 mi NW 6.9 mph - N/A   Clear
7:55 PM -0.4 °F -14.7 °F -7.6 °F 72% 30.48 in 10.0 mi NNW 8.1 mph - N/A   Clear
8:15 PM -2.2 °F -14.2 °F -9.4 °F 71% 30.49 in 10.0 mi NW 5.8 mph - N/A   Clear
8:35 PM -2.2 °F -14.2 °F -9.4 °F 71% 30.48 in 10.0 mi NW 5.8 mph - N/A   Clear
8:55 PM -2.2 °F -12.5 °F -9.4 °F 71% 30.49 in 10.0 mi NW 4.6 mph - N/A   Clear
9:15 PM -2.2 °F -10.4 °F -9.4 °F 71% 30.49 in 10.0 mi WNW 3.5 mph - N/A   Clear
9:35 PM -2.2 °F - -9.4 °F 71% 30.49 in 10.0 mi Calm Calm - N/A   Clear
9:55 PM -4.0 °F -14.6 °F -9.4 °F 78% 30.49 in 10.0 mi NW 4.6 mph - N/A   Clear
10:15 PM -4.0 °F -14.6 °F -9.4 °F 78% 30.49 in 10.0 mi WNW 4.6 mph - N/A   Clear
10:35 PM -5.8 °F -18.4 °F -11.2 °F 77% 30.50 in 10.0 mi SW 5.8 mph - N/A   Clear
10:55 PM -4.0 °F -14.6 °F -9.4 °F 78% 30.49 in 10.0 mi West 4.6 mph - N/A   Clear
11:15 PM -5.8 °F -16.7 °F -11.2 °F 77% 30.50 in 10.0 mi West 4.6 mph - N/A   Clear
11:35 PM -4.0 °F -16.3 °F -9.4 °F 78% 30.49 in 10.0 mi NW 5.8 mph - N/A   Clear
11:55 PM -5.8 °F - -9.4 °F 84% 30.49 in 10.0 mi Calm Calm - N/A   Clear